HISAKI (SPRINT-A)

Last updated on Wed Sep 17 2025 00:03:34 GMT+0000 (Coordinated Universal Time)

1 39253U 13049A 25259.44612810 .00000107 00000+0 57173-4 0 9992 2 39253 29.7194 171.6874 0136673 317.5156 41.4907 13.55502388594254
UTC large
Height (km)
Speed (km/s)
/
Latitude / Longitude
Inclination (degrees)
Orbital Period (minutes)
Azimuth
Elevation
Range (km)
Doppler Factor

Next 0 passes for location: London (51.5072 / 0.1276)

Sorry there are no passes over London.